Location: Sungai Igah
(2.7333°N, 114.2500°E)
Time: 12:27:00
(UTC+00:00)

Cosmos 1680 Rocket - Pass Details

Date: 14 June 2021
Orbit: 760 x 780 km, 74.1° (Epoch: 04 August)

Event Time Altitude Azimuth Distance (km) Brightness Sun altitude
Exits shadow 21:13:31 - 187° (S) 3,081 6.3 -14.9°
Reaches altitude 10° 21:15:30 10° 185° (S) 2,314 5.7 -14.4°
Maximum altitude 21:20:43 69° 102° (ESE) 827 3.8 -13.2°
Drops below altitude 10° 21:25:57 10° 19° (NNE) 2,318 6.6 -12.1°
Sets 21:28:21 0° 17° (NNE) 3,245 7.4 -11.5°
